Regional Weather Roundup
Issued by NWS

Home | Current Version | Previous Version | Text Only | Print | Product List | Glossary On
Versions: 1 2 3 4 5 6 7 8 9 10 11 12 13 14 15 16 17 18 19 20 21 22 23 24 25 26 27 28 29 30 31 32 33 34 35 36 37 38 39 40 41 42 43 44 45 46 47 48 49 50
000
ASUS43 KMPX 021510
RWRMN
WEATHER ROUNDUP FOR MINNESOTA
NATIONAL WEATHER SERVICE TWIN CITIES/CHANHASSEN MN
1000 AM CDT WED SEP 02 2015


NOTE: "FAIR" INDICATES FEW OR NO CLOUDS BELOW 12,000 FEET WITH NO
SIGNIFICANT WEATHER AND/OR OBSTRUCTIONS TO VISIBILITY. N/A MEANS
CURRENT SKY AND/OR WEATHER CONDITIONS ARE NOT AVAILABLE.

MNZ060>063-068>070-021600-
   Twin Cities Metro

CITY           SKY/WX    TMP DP  RH WIND       PRES   REMARKS
TWIN CITIES    CLOUDY    71  67  87 SE10      29.92S
ST PAUL        CLOUDY    70  67  90 SE13      29.93S
CRYSTAL        CLOUDY    73  68  84 SE6       29.90F
BLAINE         CLOUDY    73  72  94 E7        29.91F
LAKEVILLE      CLOUDY    70  68  94 E7        29.93R
EDEN PRAIRIE   CLOUDY    73  69  87 E7        29.90F
SOUTH ST PAUL  CLOUDY    69  67  91 SE7       29.92S
LAKE ELMO      LGT RAIN  68  66  94 SE8       29.95S
$$
MNZ001>005-007-008-013>017-022>024-027-028-021600-
   Northwest Minnesota

CITY           SKY/WX    TMP DP  RH WIND       PRES   REMARKS
BEMIDJI        SUNNY     76  68  77 SE6       29.91S
HALLOCK        SUNNY     75  70  83 S12       29.82F
ROSEAU         SUNNY     75  68  78 SW8       29.86S
WARROAD        SUNNY     73  70  88 SE3       29.87F
THIEF RVR FALL SUNNY     75  66  73 S12       29.86S
CROOKSTON      SUNNY     75  64  69 S10       29.84F
FOSSTON        SUNNY     75  63  64 S14       29.88F
DETROIT LAKES  SUNNY     73  64  73 SE13      29.89F
MOORHEAD       SUNNY     75  64  69 S10       29.84F
PARK RAPIDS    MOSUNNY   74  67  78 SE8       29.90F
MAHNOMEN       FAIR      75  65  70 SE10      29.87F
$$
MNZ006-009>011-018-025>026-021600-
   North Central Minnesota

CITY           SKY/WX    TMP DP  RH WIND       PRES   REMARKS
BAUDETTE       SUNNY     73  65  75 SE6       29.89S
FLAG ISLAND    SUNNY     70  63  78 S9        29.87S
INTL FALLS     MOSUNNY   72  66  81 SE8       29.94S
WASKISH        SUNNY     77  70  78 S5        29.90S
BIG FORK       CLOUDY    72  70  94 E3        29.95R FOG
LONGVILLE      SUNNY     75  68  78 SE7       29.92R
GRAND RAPIDS     N/A     75  66  73 S6        29.94F
CRANE LAKE     MOSUNNY   64  63  94 SE5       29.98R
ORR            MOSUNNY   68  63  83 CALM      29.94R
COOK           PTSUNNY   66  61  82 E3        29.99R
WALKER         FAIR      75  67  77 SE5       29.91S
$$
MNZ012-019>021-037-021600-
   Northeast Minnesota

CITY           SKY/WX    TMP DP  RH WIND       PRES   REMARKS
DULUTH         LGT RAIN  65  63  93 E10       30.00F FOG
ELY            DRIZZLE   63  61  94 S9        30.01S
HIBBING        RAIN      66  64  93 E10       30.02R
EVELETH        CLOUDY    64  63  94 E7        30.05R
DULUTH HARBOR  DRIZZLE   61  61 100 E13       29.99F
TWO HARBORS    RAIN      70  64  83 N3        30.01S
SILVER BAY     TSTM      66  64  94 CALM      30.00F
GRAND MARAIS     N/A     54  52  93 W5        30.02R
G MARAIS ARPRT CLOUDY    57  52  82 CALM      30.06R
$$
MNZ029>031-032-039>041-046>048-054>057-064-021600-
   West Central Minnesota

CITY           SKY/WX    TMP DP  RH WIND       PRES   REMARKS
FERGUS FALLS   SUNNY     73  64  73 SE12      29.85S
WHEATON        SUNNY     70  64  83 SE12      29.85F
MORRIS         SUNNY     73  66  78 SE10      29.85F
ALEXANDRIA     SUNNY     73  65  75 SE9       29.89F
ELBOW LAKE     FAIR      73  65  76 SE12      29.86S
WADENA         SUNNY     72  70  94 SE8       29.88F
GLENWOOD       SUNNY     73  66  78 SE10      29.89F
APPLETON       SUNNY     75  66  73 SE8       29.84F
BENSON         SUNNY     73  64  73 S7        29.86F
ORTONVILLE     SUNNY     70  64  83 SE7       29.84F
MADISON        SUNNY     73  66  78 SE6       29.84F
WILLMAR        FAIR      73  68  83 SE5       29.89S
$$
MNZ033>034-036-042>043-049>051-058-059-021600-
   Central Minnesota

CITY           SKY/WX    TMP DP  RH WIND       PRES   REMARKS
ST CLOUD       CLOUDY    70  67  90 E7        29.90F
SAUK CENTRE    FAIR      73  65  77 SE6       29.90F
PAYNESVILLE    SUNNY     73  66  80 E10       29.90S
AITKIN         MOSUNNY   75  66  73 E3        29.93R
PINE RIVER     SUNNY     75  64  69 SE10      29.95S
BRAINERD       SUNNY     76  63  64 S8        29.92S
STAPLES        SUNNY     73  64  73 SE7       29.90F
LONG PRAIRIE   FAIR      72  64  78 SE8       29.90F
LITTLE FALLS   SUNNY     73  63  68 SE9       29.91S
LITCHFIELD     MOSUNNY   73  72  94 SE5       29.89F
BUFFALO        CLOUDY    73  67  83 SE6       29.91S
MAPLE LAKE     CLOUDY    73  70  91 SE5       29.91F
$$
MNZ037-044-045-052-053-021600-
   East Central Minnesota

CITY           SKY/WX    TMP DP  RH WIND       PRES   REMARKS
PRINCETON      CLOUDY    72  68  88 SE7       29.92S
MORA           CLOUDY    70  64  83 SE3       29.96R
CAMBRIDGE      LGT RAIN  72  63  73 SE6       29.91S
RUSH CITY      CLOUDY    68  65  90 SE3       29.94R
MOOSE LAKE     PTSUNNY   72  63  73 CALM      29.93R
HINCKLEY       PTSUNNY   72  66  83 SE5       29.94R
CLOQUET        PTSUNNY   68  63  83 NE9       29.96F
MCGREGOR       PTSUNNY   77  68  73 E8        29.94F
$$
MNZ071>073-080-081-089-090-097-098-021600-
   Southwest Minnesota

CITY           SKY/WX    TMP DP  RH WIND       PRES   REMARKS
MONTEVIDEO     SUNNY     79  70  73 S6        29.87S
GRANITE FALLS  SUNNY     73  69  86 SE7       29.87F
CANBY          SUNNY     72  67  86 SE3       29.85F
MARSHALL       SUNNY     75  66  73 SW10      29.87S
REDWOOD FALLS  MOSUNNY   75  69  81 S12       29.86F
OLIVIA         SUNNY     72  66  83 S8        29.86F
PIPESTONE      SUNNY     72  68  88 S12       29.88S
WINDOM         SUNNY     77  68  73 S12G17    29.89F
WORTHINGTON    MOSUNNY   73  66  78 S13G20    29.90S
JACKSON        SUNNY     75  70  83 S17       29.91S
TRACY          SUNNY     74  70  85 S14       29.86F
SLAYTON        SUNNY     74  70  88 S13       29.89F
$$
MNZ065>067-074>077-082>085-091>093-021600-
   South Central Minnesota

CITY           SKY/WX    TMP DP  RH WIND       PRES   REMARKS
MANKATO        SUNNY     75  70  83 S13       29.90
NEW ULM        SUNNY     75  70  83 S14       29.88F
ST JAMES       SUNNY     77  70  78 S15G21    29.89F
FAIRMONT       SUNNY     75  64  69 S16       29.90F
GLENCOE        SUNNY     76  71  84 S9        29.89F
FARIBAULT      MOSUNNY   75  70  83 S10       29.92F
OWATONNA       SUNNY     75  66  73 S8        29.93F
WASECA         SUNNY     77  70  78 S9        29.93S
ALBERT LEA     SUNNY     75  68  78 S9G16     29.93F
$$
MNZ078>079-086>088-094>096-021600-
   Southeast Minnesota

CITY           SKY/WX    TMP DP  RH WIND       PRES   REMARKS
ROCHESTER      PTSUNNY   75  69  81 S10       29.96S
RED WING       TSTM      68  64  88 CALM      29.94F
STANTON        CLOUDY    71  67  85 E7        29.92S
DODGE CENTER   MOSUNNY   73  68  83 S10       29.94F
WINONA         CLOUDY    77  70  78 CALM      29.97R
AUSTIN         SUNNY     75  66  73 S13       29.95S
PRESTON        MOSUNNY   71  67  88 S8        29.99R
$$
ABBREVIATIONS USED IN REMARKS
   TC - TEMPERATURES IN CELSIUS
  WCI - WIND CHILL INDEX
   HX - HEAT INDEX
  VSB - VISIBILITY
$$


USA.gov is the U.S. government's official web portal to all federal, state and local government web resources and services.